DW6345 Murcia ES current weather conditions

sailwx.info

Wind from 250 at 2 knots gusting 5

Air temperature 14.4° C
Dewpoint 14.1° C

Last reported at 2016-Dec-09 12:54 UTC.
Time now 2016-Dec-09 13:42 UTC

Location: N 37°60' W 001°06'.
View on Google Maps.

See reports from other nearby stations

  
Tides and Currents Weather Stations Pressure Air Temp Water Temp Dewpoint Dewpoint Depression Visibility Wind Speed Wind Dir Waves Ship Positions
date/time (UTC)wind fromknots sea level pressurealtimeterstation pressurevisibilityair tempwater tempwave heightnotes
2016-Dec-09 12:54 250 2 gusting 5 14.4
2016-Dec-09 12:49 264 2 gusting 5 14.4
2016-Dec-09 12:44 270 2 gusting 5 14.4
2016-Dec-09 12:39 267 2 gusting 5 14.4
2016-Dec-09 12:34 270 1 gusting 5 14.4
2016-Dec-09 12:29 272 2 gusting 6 14.4
2016-Dec-09 12:24 270 2 gusting 5 14.4
2016-Dec-09 12:19 270 2 gusting 5 14.4
2016-Dec-09 12:14 264 2 gusting 6 14.4
2016-Dec-09 12:09 270 2 gusting 5 14.4
2016-Dec-09 12:04 270 2 gusting 5 14.4
2016-Dec-09 11:59 202 2 gusting 6 14.4
2016-Dec-09 11:54 270 2 gusting 5 13.9
2016-Dec-09 11:49 180 2 gusting 6 13.9
2016-Dec-09 11:44 180 4 gusting 6 13.9
2016-Dec-09 11:39 185 2 gusting 5 13.9
2016-Dec-09 11:34 288 2 gusting 5 13.9
2016-Dec-09 11:29 270 2 gusting 5 13.9
2016-Dec-09 11:24 225 1 gusting 4 13.9
2016-Dec-09 11:19 270 2 gusting 5 13.9
2016-Dec-09 11:14 270 2 gusting 5 13.9
2016-Dec-09 11:09 270 2 gusting 5 13.9
2016-Dec-09 11:04 270 2 gusting 5 13.9
2016-Dec-09 10:59 270 2 gusting 5 13.9
2016-Dec-09 10:54 248 2 gusting 5 13.9
2016-Dec-09 10:49 270 2 gusting 5 13.9
2016-Dec-09 10:44 311 2 gusting 6 13.9
2016-Dec-09 10:39 225 2 gusting 6 13.9
2016-Dec-09 10:34 313 2 gusting 6 13.9
2016-Dec-09 10:29 229 4 gusting 6 13.9
2016-Dec-09 10:24 270 3 gusting 6 13.9
2016-Dec-09 10:19 315 2 gusting 6 13.9
2016-Dec-09 10:14 270 4 gusting 6 13.9
2016-Dec-09 10:09 270 2 gusting 5 13.9
2016-Dec-09 10:04 270 0 gusting 4 13.9
2016-Dec-09 09:59 270 2 gusting 5 13.9
2016-Dec-09 09:54 270 2 gusting 5 13.9
2016-Dec-09 09:49 270 2 gusting 5 13.9
2016-Dec-09 09:44 270 2 gusting 6 13.9
2016-Dec-09 09:39 270 4 gusting 6 13.9
2016-Dec-09 09:34 270 3 gusting 5 13.9
2016-Dec-09 09:29 270 2 gusting 4 13.9
2016-Dec-09 09:24 248 0 gusting 4 13.9
2016-Dec-09 09:19 270 2 gusting 5 13.9
2016-Dec-09 09:14 270 1 gusting 4 13.9
2016-Dec-09 09:09 248 1 gusting 4 13.9
2016-Dec-09 09:04 248 2 gusting 4 13.3
2016-Dec-09 08:59 248 2 gusting 5 13.9
2016-Dec-09 08:54 248 2 gusting 4 13.9
2016-Dec-09 08:49 248 1 gusting 4 13.3
2016-Dec-09 08:44 248 2 gusting 5 13.3
2016-Dec-09 08:39 248 2 gusting 4 13.3
2016-Dec-09 08:34 250 2 gusting 2 13.3
2016-Dec-09 08:29 270 1 gusting 2 13.3
2016-Dec-09 08:24 270 0 gusting 2 13.3
2016-Dec-09 08:19 248 1 gusting 2 13.3
2016-Dec-09 08:14 186 13.3
2016-Dec-09 08:09 180 0 gusting 2 13.3
2016-Dec-09 08:04 248 0 gusting 2 13.3
2016-Dec-09 07:59 248 0 gusting 2 13.3
2016-Dec-09 07:54 248 2 gusting 4 13.3
2016-Dec-09 07:49 270 1 gusting 4 13.3
2016-Dec-09 07:44 270 1 gusting 5 13.3
2016-Dec-09 07:39 270 2 gusting 6 13.3
2016-Dec-09 07:34 248 4 gusting 6 13.3
2016-Dec-09 07:29 270 2 gusting 6 13.3
2016-Dec-09 07:24 270 3 gusting 6 13.3
2016-Dec-09 07:19 270 3 gusting 6 13.3
2016-Dec-09 07:14 250 4 gusting 6 13.3
2016-Dec-09 07:09 270 4 gusting 6 13.3
2016-Dec-09 07:04 248 4 gusting 6 13.3
2016-Dec-09 06:59 248 5 gusting 6 13.3
2016-Dec-09 06:54 248 2 gusting 6 13.3
2016-Dec-09 06:49 248 3 gusting 5 13.3
2016-Dec-09 06:44 248 4 gusting 5 13.3
2016-Dec-09 06:39 248 2 gusting 5 13.3
2016-Dec-09 06:34 248 3 gusting 5 13.3
2016-Dec-09 06:29 180 2 gusting 5 13.3
2016-Dec-09 06:24 248 4 gusting 6 13.3
2016-Dec-09 06:19 248 2 gusting 6 13.3
2016-Dec-09 06:14 268 2 gusting 5 13.3
2016-Dec-09 06:09 250 2 gusting 6 13.3
2016-Dec-09 06:04 248 2 gusting 6 13.3
2016-Dec-09 05:59 248 4 gusting 6 13.3
2016-Dec-09 05:54 270 3 gusting 6 13.3
2016-Dec-09 05:49 315 2 gusting 5 13.3
2016-Dec-09 05:44 248 1 gusting 5 13.3
2016-Dec-09 05:39 270 1 gusting 2 13.3
2016-Dec-09 05:34 243 1 gusting 4 13.3
2016-Dec-09 05:29 274 1 gusting 5 13.3
2016-Dec-09 05:24 248 2 gusting 5 13.3
2016-Dec-09 05:19 188 1 gusting 4 13.3
2016-Dec-09 05:14 311 2 gusting 5 13.3
2016-Dec-09 05:09 315 2 gusting 5 13.3
2016-Dec-09 05:04 270 2 gusting 5 13.3
2016-Dec-09 04:59 270 2 gusting 5 13.3
2016-Dec-09 04:54 248 2 gusting 4 13.3
2016-Dec-09 04:49 249 1 gusting 4 13.3
2016-Dec-09 04:44 270 2 gusting 5 13.3
2016-Dec-09 04:39 270 3 gusting 6 13.3
2016-Dec-09 04:34 268 2 gusting 5 12.8
2016-Dec-09 04:29 180 1 gusting 4 12.8
2016-Dec-09 04:24 197 1 gusting 5 12.8
2016-Dec-09 04:19 270 2 gusting 5 12.8
2016-Dec-09 04:14 248 2 gusting 6 13.3
2016-Dec-09 04:09 250 4 gusting 6 12.8
2016-Dec-09 04:04 270 2 gusting 6 12.8
2016-Dec-09 03:59 270 2 gusting 5 13.3
2016-Dec-09 03:54 270 2 gusting 5 12.8
2016-Dec-09 03:49 270 2 gusting 5 12.8
2016-Dec-09 03:44 270 2 gusting 5 12.8
2016-Dec-09 03:39 270 2 gusting 5 12.8
2016-Dec-09 03:34 270 2 gusting 5 12.8
2016-Dec-09 03:29 270 1 gusting 4 12.8
2016-Dec-09 03:24 270 2 gusting 5 12.8
2016-Dec-09 03:19 269 3 gusting 5 13.3
2016-Dec-09 03:14 242 1 gusting 5 13.3
2016-Dec-09 03:09 270 2 gusting 6 13.3
2016-Dec-09 03:04 248 2 gusting 5 13.3
2016-Dec-09 02:59 180 4 gusting 6 13.3
2016-Dec-09 02:54 268 2 gusting 5 13.3
2016-Dec-09 02:49 315 1 gusting 5 13.3
2016-Dec-09 02:44 270 1 gusting 5 13.3
2016-Dec-09 02:39 202 2 gusting 6 13.3
2016-Dec-09 02:34 189 2 gusting 5 13.3
2016-Dec-09 02:29 270 0 gusting 5 13.3
2016-Dec-09 02:24 180 2 gusting 5 13.3
2016-Dec-09 02:19 191 2 gusting 6 13.3
2016-Dec-09 02:14 248 2 gusting 6 13.3
2016-Dec-09 02:09 270 3 gusting 6 13.3
2016-Dec-09 02:04 270 5 gusting 6 13.3
2016-Dec-09 01:59 270 4 gusting 6 13.3
2016-Dec-09 01:54 270 2 gusting 6 13.3
2016-Dec-09 01:49 270 5 gusting 6 13.3
2016-Dec-09 01:44 268 4 gusting 6 13.3
2016-Dec-09 01:39 248 4 gusting 6 13.3
2016-Dec-09 01:34 248 5 gusting 6 13.3
2016-Dec-09 01:29 180 5 gusting 6 13.3
2016-Dec-09 01:24 268 4 gusting 6 13.3
2016-Dec-09 01:19 270 5 gusting 6 13.3
2016-Dec-09 01:14 270 4 gusting 7 13.3
2016-Dec-09 01:09 270 2 gusting 6 13.3
2016-Dec-09 01:04 270 2 gusting 5 13.3
2016-Dec-09 00:59 270 2 gusting 5 13.3
2016-Dec-09 00:54 290 2 gusting 5 13.3
2016-Dec-09 00:49 270 2 gusting 6 13.3
2016-Dec-09 00:44 250 1 gusting 6 13.3
2016-Dec-09 00:39 270 2 gusting 6 13.3
2016-Dec-09 00:34 270 2 gusting 5 13.3
2016-Dec-09 00:29 270 2 gusting 4 13.3
2016-Dec-09 00:24 315 0 gusting 4 13.3
2016-Dec-09 00:19 270 1 gusting 4 13.3
2016-Dec-09 00:14 270 2 gusting 4 13.3
2016-Dec-09 00:09 309 2 gusting 5 13.3
2016-Dec-09 00:04 270 1 gusting 2 13.3
2016-Dec-08 23:59 270 1 gusting 2 13.3
2016-Dec-08 23:54 270 0 gusting 2 13.3
2016-Dec-08 23:49 272 0 gusting 2 13.3
2016-Dec-08 23:44 311 0 gusting 2 13.9
2016-Dec-08 23:39 270 13.9
2016-Dec-08 23:34 315 0 gusting 1 13.9
2016-Dec-08 23:29 321 13.9
2016-Dec-08 23:24 045 0 gusting 1 13.9
2016-Dec-08 23:19 315 13.9
2016-Dec-08 23:14 045 14.4
2016-Dec-08 23:09 315 14.4
2016-Dec-08 23:04 315 14.4
2016-Dec-08 22:59 274 14.4
2016-Dec-08 22:54 276 0 gusting 2 14.4
2016-Dec-08 22:49 312 1 gusting 2 14.4
2016-Dec-08 22:44 270 0 gusting 2 14.4
2016-Dec-08 22:39 270 1 gusting 2 14.4
2016-Dec-08 22:34 270 0 gusting 1 14.4
2016-Dec-08 22:29 270 0 gusting 0 14.4
2016-Dec-08 22:24 225 14.4
2016-Dec-08 22:19 315 14.4
2016-Dec-08 22:14 312 0 gusting 1 14.4
2016-Dec-08 22:09 270 0 gusting 1 14.4
2016-Dec-08 22:04 270 0 gusting 1 14.4
2016-Dec-08 21:59 270 0 gusting 2 14.4
2016-Dec-08 21:54 270 0 gusting 2 14.4
2016-Dec-08 21:49 270 0 gusting 4 14.4
2016-Dec-08 21:44 270 1 gusting 2 14.4
2016-Dec-08 21:39 225 0 gusting 2 14.4
2016-Dec-08 21:34 270 0 gusting 2 14.4
2016-Dec-08 21:29 266 0 gusting 1 14.4
2016-Dec-08 21:24 270 0 gusting 1 14.4
2016-Dec-08 21:19 229 14.4
2016-Dec-08 21:14 270 0 gusting 1 14.4
2016-Dec-08 21:09 265 14.4
2016-Dec-08 21:04 090 0 gusting 2 14.4
2016-Dec-08 20:59 131 1 gusting 2 14.4
2016-Dec-08 20:54 096 14.4
2016-Dec-08 20:49 180 14.4
2016-Dec-08 20:44 090 14.4
2016-Dec-08 20:39 090 14.4
2016-Dec-08 20:34 096 14.4
2016-Dec-08 20:29 250 14.4
2016-Dec-08 20:24 270 0 gusting 0 14.4
2016-Dec-08 20:19 315 14.4
2016-Dec-08 20:14 315 0 gusting 0 14.4
2016-Dec-08 20:09 315 0 gusting 1 14.4
2016-Dec-08 20:04 045 0 gusting 2 14.4
2016-Dec-08 19:59 090 0 gusting 2 15.0
2016-Dec-08 19:54 130 1 gusting 2 15.0
2016-Dec-08 19:49 090 1 gusting 5 15.0
2016-Dec-08 19:44 090 2 gusting 5 15.0
2016-Dec-08 19:39 094 2 gusting 4 15.0
2016-Dec-08 19:34 090 1 gusting 4 15.0
2016-Dec-08 19:29 094 1 gusting 2 15.0
2016-Dec-08 19:24 090 1 gusting 2 15.0
2016-Dec-08 19:19 132 0 gusting 2 15.0
2016-Dec-08 19:14 092 0 gusting 1 15.0
2016-Dec-08 19:09 225 0 gusting 2 15.0
2016-Dec-08 19:04 225 1 gusting 2 15.0
2016-Dec-08 18:59 045 0 gusting 2 15.0
2016-Dec-08 18:54 045 1 gusting 2 15.0
2016-Dec-08 18:49 047 0 gusting 2 15.0
2016-Dec-08 18:44 045 1 gusting 5 15.0
2016-Dec-08 18:39 090 1 gusting 5 15.6
2016-Dec-08 18:34 045 1 gusting 2 15.6
2016-Dec-08 18:29 315 1 gusting 2 15.6
2016-Dec-08 18:24 315 1 gusting 2 15.6
2016-Dec-08 18:19 319 0 gusting 0 15.6
2016-Dec-08 18:14 045 0 gusting 1 15.6
2016-Dec-08 18:09 090 0 gusting 2 15.6
2016-Dec-08 18:04 090 1 gusting 2 15.6
2016-Dec-08 17:59 090 1 gusting 2 15.6
2016-Dec-08 17:54 130 1 gusting 5 16.1
2016-Dec-08 17:49 090 2 gusting 5 16.1
2016-Dec-08 17:44 090 2 gusting 6 16.1
2016-Dec-08 17:39 090 5 gusting 6 16.1
2016-Dec-08 17:34 099 1 gusting 4 16.1
2016-Dec-08 17:29 090 2 gusting 5 16.1
2016-Dec-08 17:24 090 2 gusting 5 16.1
2016-Dec-08 17:19 094 1 gusting 2 16.1
2016-Dec-08 17:14 090 1 gusting 2 16.1
2016-Dec-08 17:09 051 1 gusting 4 16.1
2016-Dec-08 17:04 090 0 gusting 2 16.7
2016-Dec-08 16:59 090 1 gusting 5 16.7
2016-Dec-08 16:54 171 1 gusting 5 16.7
2016-Dec-08 16:49 086 2 gusting 5 16.7
2016-Dec-08 16:44 054 0 gusting 5 16.7
2016-Dec-08 16:39 129 4 gusting 6 16.7
2016-Dec-08 16:34 094 1 gusting 6 16.7
2016-Dec-08 16:29 088 1 gusting 6 16.7
2016-Dec-08 16:14 051 3 gusting 6 17.2
2016-Dec-08 16:09 090 3 gusting 6 17.2
2016-Dec-08 16:04 135 1 gusting 7 17.2
2016-Dec-08 15:59 090 2 gusting 5 17.2
2016-Dec-08 15:54 093 2 gusting 7 17.8
2016-Dec-08 15:49 049 4 gusting 7 17.8
2016-Dec-08 15:44 095 3 gusting 6 17.8
2016-Dec-08 15:39 045 3 gusting 6 17.8
2016-Dec-08 15:34 138 2 gusting 8 17.8
2016-Dec-08 15:29 129 4 gusting 6 18.3
2016-Dec-08 15:24 093 1 gusting 2 18.3
2016-Dec-08 15:19 099 0 gusting 2 18.3
2016-Dec-08 15:14 141 0 gusting 2 18.3
2016-Dec-08 15:09 048 1 gusting 4 18.3
2016-Dec-08 15:04 135 2 gusting 5 18.3
2016-Dec-08 14:59 093 2 gusting 5 18.3
2016-Dec-08 14:54 133 2 gusting 5 18.3
2016-Dec-08 14:49 039 2 gusting 5 18.3
2016-Dec-08 14:44 045 2 gusting 5 18.3
2016-Dec-08 14:39 127 1 gusting 5 18.3
2016-Dec-08 14:34 039 0 gusting 2 18.3
2016-Dec-08 14:29 066 0 gusting 2 17.8
2016-Dec-08 14:24 048 1 gusting 5 18.3
2016-Dec-08 14:19 049 0 gusting 2 17.8
2016-Dec-08 14:14 081 0 gusting 7 17.8
2016-Dec-08 14:09 045 5 gusting 7 18.3
2016-Dec-08 14:04 045 0 gusting 2 18.3
2016-Dec-08 13:59 045 0 gusting 2 18.3
2016-Dec-08 13:54 045 2 gusting 6 18.3
2016-Dec-08 13:49 090 4 gusting 6 18.9
2016-Dec-08 13:44 050 3 gusting 6 18.9
2016-Dec-08 13:39 090 1 gusting 2 18.9
2016-Dec-08 13:34 230 0 gusting 2 18.9
2016-Dec-08 13:29 045 0 gusting 5 18.3
2016-Dec-08 13:24 315 0 gusting 4 17.8
2016-Dec-08 13:19 315 1 gusting 4 17.8
2016-Dec-08 13:14 312 1 gusting 2 17.8
2016-Dec-08 13:09 267 1 gusting 5 17.2
2016-Dec-08 13:04 270 1 gusting 2 16.7
2016-Dec-08 12:59 270 1 gusting 4 16.7
2016-Dec-08 12:54 270 1 gusting 2 16.7
2016-Dec-08 12:49 225 2 gusting 5 16.7
2016-Dec-08 12:44 229 2 gusting 4 16.7
2016-Dec-08 12:39 270 2 gusting 5 16.7
2016-Dec-08 12:34 220 2 gusting 6 16.7
2016-Dec-08 12:29 229 2 gusting 5 16.7
2016-Dec-08 12:24 184 3 gusting 5 16.1
2016-Dec-08 12:19 227 3 gusting 5 16.7
2016-Dec-08 12:14 222 1 gusting 2 16.1
2016-Dec-08 12:09 183 1 gusting 5 16.1
2016-Dec-08 12:04 225 2 gusting 4 15.6
2016-Dec-08 11:59 229 2 gusting 5 15.6
2016-Dec-08 11:54 225 1 gusting 5 15.6
2016-Dec-08 11:49 267 4 gusting 6 15.6
2016-Dec-08 11:44 270 1 gusting 5 15.6
2016-Dec-08 11:39 180 0 gusting 5 15.0
2016-Dec-08 11:34 231 2 gusting 5 15.0
2016-Dec-08 11:29 225 1 gusting 5 15.0
2016-Dec-08 11:24 270 2 gusting 6 15.0
2016-Dec-08 11:19 292 2 gusting 5 15.0
2016-Dec-08 11:14 184 2 gusting 6 14.4
2016-Dec-08 11:09 270 3 gusting 6 14.4
2016-Dec-08 11:04 225 2 gusting 6 14.4
2016-Dec-08 10:59 290 4 gusting 6 13.9
2016-Dec-08 10:54 266 4 gusting 6 13.9
2016-Dec-08 10:49 338 1 gusting 5 13.9
2016-Dec-08 10:44 270 3 gusting 6 13.9
2016-Dec-08 10:39 225 5 gusting 5 13.9
2016-Dec-08 10:34 265 2 gusting 6 13.9
2016-Dec-08 10:29 270 1 gusting 5 13.9
2016-Dec-08 10:24 312 2 gusting 5 13.9
2016-Dec-08 10:19 204 2 gusting 6 13.3
2016-Dec-08 10:14 270 3 gusting 6 13.3
2016-Dec-08 10:09 230 4 gusting 8 13.3
2016-Dec-08 10:04 225 6 gusting 8 13.3
2016-Dec-08 09:59 266 4 gusting 7 13.3
2016-Dec-08 09:54 225 4 gusting 6 13.3
2016-Dec-08 09:49 270 3 gusting 6 13.3
2016-Dec-08 09:44 230 4 gusting 6 12.8
2016-Dec-08 09:39 225 5 gusting 6 13.3
2016-Dec-08 09:34 266 4 gusting 7 13.3
2016-Dec-08 09:29 266 5 gusting 8 12.8
2016-Dec-08 09:24 229 5 gusting 7 12.8
2016-Dec-08 09:19 228 2 gusting 8 12.8
2016-Dec-08 09:14 270 5 gusting 8 12.2
2016-Dec-08 09:09 250 4 gusting 6 12.2
2016-Dec-08 09:04 225 3 gusting 5 11.7
2016-Dec-08 08:59 311 0 gusting 4 11.7
2016-Dec-08 08:54 311 2 gusting 4 11.7
2016-Dec-08 08:49 282 1 gusting 4 11.7
2016-Dec-08 08:44 270 1 gusting 2 11.7
2016-Dec-08 08:39 277 0 gusting 2 11.7
2016-Dec-08 08:34 270 1 gusting 2 11.7
2016-Dec-08 08:29 227 0 gusting 2 11.7
2016-Dec-08 08:24 270 0 gusting 2 11.1
2016-Dec-08 08:19 270 0 gusting 2 11.7
2016-Dec-08 08:14 308 0 gusting 2 11.1
2016-Dec-08 08:09 270 0 gusting 2 11.1
2016-Dec-08 08:04 315 0 gusting 4 11.1
2016-Dec-08 07:59 312 1 gusting 4 11.1
2016-Dec-08 07:54 270 2 gusting 2 11.1
2016-Dec-08 07:49 270 1 gusting 2 11.1
2016-Dec-08 07:44 200 1 gusting 4 11.1
2016-Dec-08 07:39 270 1 gusting 2 11.1
2016-Dec-08 07:34 270 1 gusting 2 11.1
2016-Dec-08 07:29 270 2 gusting 5 11.1
2016-Dec-08 07:24 270 1 gusting 4 11.1
2016-Dec-08 07:19 270 2 gusting 4 11.1
2016-Dec-08 07:14 270 2 gusting 5 11.1
2016-Dec-08 07:09 270 2 gusting 4 11.1
2016-Dec-08 07:04 270 2 gusting 4 11.1
2016-Dec-08 06:59 273 1 gusting 4 11.1
2016-Dec-08 06:54 312 1 gusting 4 11.1
2016-Dec-08 06:49 270 1 gusting 2 11.1
2016-Dec-08 06:44 270 1 gusting 5 11.1
2016-Dec-08 06:39 270 1 gusting 2 11.1
2016-Dec-08 06:34 229 0 gusting 5 11.1
2016-Dec-08 06:29 270 2 gusting 4 11.1
2016-Dec-08 06:24 276 2 gusting 5 11.1
2016-Dec-08 06:19 270 1 gusting 5 11.1
2016-Dec-08 06:14 273 2 gusting 5 11.1
2016-Dec-08 06:09 270 1 gusting 5 11.1
2016-Dec-08 06:04 270 4 gusting 5 11.1
2016-Dec-08 05:59 270 2 gusting 6 11.1
2016-Dec-08 05:54 312 2 gusting 6 11.1
2016-Dec-08 05:49 270 2 gusting 5 11.1
2016-Dec-08 05:44 312 1 gusting 5 11.1
2016-Dec-08 05:39 276 2 gusting 5 11.1
2016-Dec-08 05:34 270 2 gusting 4 11.1
2016-Dec-08 05:29 233 1 gusting 5 11.1
2016-Dec-08 05:24 270 2 gusting 5 11.1
2016-Dec-08 05:19 309 2 gusting 5 11.1
2016-Dec-08 05:14 225 2 gusting 5 11.1
2016-Dec-08 05:09 270 1 gusting 4 11.1
2016-Dec-08 05:04 270 11.1
2016-Dec-08 04:59 315 11.1
2016-Dec-08 04:54 308 0 gusting 4 11.1
2016-Dec-08 04:49 273 1 gusting 4 11.1
2016-Dec-08 04:44 270 0 gusting 4 11.1
2016-Dec-08 04:39 270 2 gusting 5 11.1
2016-Dec-08 04:34 270 2 gusting 4 11.1
2016-Dec-08 04:29 270 0 gusting 2 11.1
2016-Dec-08 04:24 270 0 gusting 2 11.1
2016-Dec-08 04:19 313 1 gusting 5 11.1
2016-Dec-08 04:14 310 2 gusting 6 11.7
2016-Dec-08 04:09 315 1 gusting 5 11.7
2016-Dec-08 04:04 315 1 gusting 2 11.7
2016-Dec-08 03:59 309 2 gusting 4 11.7
2016-Dec-08 03:54 228 1 gusting 5 11.7
2016-Dec-08 03:49 270 0 gusting 2 11.7
2016-Dec-08 03:44 279 0 gusting 4 11.7
2016-Dec-08 03:39 270 0 gusting 4 11.7
2016-Dec-08 03:34 270 2 gusting 5 11.7
2016-Dec-08 03:29 315 2 gusting 5 11.7
2016-Dec-08 03:24 310 3 gusting 6 11.7
2016-Dec-08 03:19 312 3 gusting 6 11.7
2016-Dec-08 03:14 270 2 gusting 6 11.7
2016-Dec-08 03:09 270 2 gusting 5 11.7
2016-Dec-08 03:04 270 2 gusting 5 11.7
2016-Dec-08 02:59 289 2 gusting 4 11.7
2016-Dec-08 02:54 270 2 gusting 5 11.7
2016-Dec-08 02:49 270 0 gusting 5 11.7
2016-Dec-08 02:44 315 2 gusting 5 11.7
2016-Dec-08 02:39 270 2 gusting 5 11.7
2016-Dec-08 02:34 270 2 gusting 5 11.7
2016-Dec-08 02:29 225 3 gusting 5 11.7
2016-Dec-08 02:24 225 1 gusting 4 11.7
2016-Dec-08 02:19 225 1 gusting 2 11.7
2016-Dec-08 02:14 248 11.7
2016-Dec-08 02:09 225 0 gusting 2 11.7
2016-Dec-08 02:04 270 0 gusting 2 11.7
2016-Dec-08 01:59 270 1 gusting 2 11.7
2016-Dec-08 01:54 263 0 gusting 5 12.2
2016-Dec-08 01:49 225 2 gusting 5 12.2
2016-Dec-08 01:44 225 2 gusting 5 12.2
2016-Dec-08 01:39 225 1 gusting 4 12.2
2016-Dec-08 01:34 225 1 gusting 2 12.2
2016-Dec-08 01:29 225 1 gusting 4 12.2
2016-Dec-08 01:24 225 0 gusting 2 12.2
2016-Dec-08 01:19 229 0 gusting 1 12.2
2016-Dec-08 01:14 270 0 gusting 2 12.2
2016-Dec-08 01:09 270 0 gusting 2 12.2
2016-Dec-08 01:04 270 0 gusting 1 12.2
2016-Dec-08 00:59 270 0 gusting 2 12.2
2016-Dec-08 00:54 225 0 gusting 2 12.2
2016-Dec-08 00:49 225 0 gusting 1 12.2
2016-Dec-08 00:44 180 0 gusting 2 12.2
2016-Dec-08 00:39 222 0 gusting 2 12.2
2016-Dec-08 00:34 180 0 gusting 1 12.2
2016-Dec-08 00:29 180 0 gusting 1 12.2
2016-Dec-08 00:24 184 12.8
2016-Dec-08 00:19 180 0 gusting 2 12.8
2016-Dec-08 00:14 225 2 gusting 2 12.8
2016-Dec-08 00:09 270 1 gusting 2 12.8
2016-Dec-08 00:04 270 0 gusting 1 12.2
2016-Dec-07 23:59 229 0 gusting 0 12.2
2016-Dec-07 23:54 267 12.2
2016-Dec-07 23:49 270 1 gusting 2 12.2
2016-Dec-07 23:44 225 0 gusting 1 12.2
2016-Dec-07 23:39 186 12.2
2016-Dec-07 23:34 315 0 gusting 1 12.8
2016-Dec-07 23:29 045 0 gusting 2 12.8
2016-Dec-07 23:24 045 1 gusting 2 12.8
2016-Dec-07 23:19 045 1 gusting 2 12.8
2016-Dec-07 23:14 045 0 gusting 2 12.8
2016-Dec-07 23:09 045 0 gusting 2 12.8
2016-Dec-07 23:04 045 0 gusting 2 12.8
2016-Dec-07 22:59 045 0 gusting 2 13.3
2016-Dec-07 22:54 045 0 gusting 2 13.3
2016-Dec-07 22:49 032 0 gusting 2 13.3
2016-Dec-07 22:44 045 1 gusting 2 13.3
2016-Dec-07 22:39 315 0 gusting 1 13.3
2016-Dec-07 22:34 315 0 gusting 2 13.3
2016-Dec-07 22:29 315 0 gusting 2 13.9
2016-Dec-07 22:24 047 0 gusting 2 13.9
2016-Dec-07 22:19 103 1 gusting 2 13.9
2016-Dec-07 22:14 135 0 gusting 2 13.9
2016-Dec-07 22:09 090 1 gusting 2 13.9
2016-Dec-07 22:04 090 2 gusting 4 13.9
2016-Dec-07 21:59 090 2 gusting 5 13.9
2016-Dec-07 21:54 090 2 gusting 5 13.9
2016-Dec-07 21:49 090 1 gusting 4 14.4
2016-Dec-07 21:44 087 0 gusting 2 14.4
2016-Dec-07 21:39 045 2 gusting 2 14.4
2016-Dec-07 21:34 132 0 gusting 2 14.4
2016-Dec-07 21:29 054 0 gusting 4 14.4
2016-Dec-07 21:24 045 1 gusting 2 14.4
2016-Dec-07 21:19 088 1 gusting 4 14.4
2016-Dec-07 21:14 049 1 gusting 4 14.4
2016-Dec-07 21:09 090 2 gusting 4 14.4
2016-Dec-07 21:04 090 2 gusting 4 14.4
2016-Dec-07 20:59 090 2 gusting 4 14.4
2016-Dec-07 20:54 090 2 gusting 4 14.4
2016-Dec-07 20:49 084 2 gusting 4 14.4
2016-Dec-07 20:44 048 0 gusting 4 14.4
2016-Dec-07 20:39 084 1 gusting 2 14.4
2016-Dec-07 20:34 045 0 gusting 2 14.4
2016-Dec-07 20:24 040 0 gusting 2 14.4
2016-Dec-07 20:19 045 0 gusting 1 14.4
2016-Dec-07 20:14 270 14.4
2016-Dec-07 20:09 045 0 gusting 2 14.4
2016-Dec-07 20:04 090 0 gusting 4 14.4
2016-Dec-07 19:59 085 1 gusting 4 14.4
2016-Dec-07 19:54 090 0 gusting 2 14.4
2016-Dec-07 19:49 045 0 gusting 2 14.4
2016-Dec-07 19:44 048 0 gusting 2 15.0
2016-Dec-07 19:39 088 0 gusting 2 15.0
2016-Dec-07 19:34 047 0 gusting 2 15.0
2016-Dec-07 19:29 045 0 gusting 4 15.0
2016-Dec-07 19:24 090 1 gusting 4 15.0
2016-Dec-07 19:19 049 1 gusting 5 15.0
2016-Dec-07 19:09 090 2 gusting 4 15.0
2016-Dec-07 19:04 090 2 gusting 5 15.0
2016-Dec-07 18:59 138 2 gusting 5 15.0
2016-Dec-07 18:44 093 2 gusting 4 15.6
2016-Dec-07 18:39 135 1 gusting 4 15.6
2016-Dec-07 18:29 135 2 gusting 4 15.6
2016-Dec-07 18:24 092 1 gusting 2 15.6
2016-Dec-07 18:19 132 0 gusting 2 15.6
2016-Dec-07 18:14 090 1 gusting 2 15.6
2016-Dec-07 18:09 091 1 gusting 5 15.6
2016-Dec-07 18:04 090 2 gusting 6 15.6
2016-Dec-07 17:59 090 2 gusting 5 15.6
2016-Dec-07 17:54 132 1 gusting 5 15.6
2016-Dec-07 17:49 091 1 gusting 4 15.6
2016-Dec-07 17:44 129 0 gusting 2 15.6
2016-Dec-07 17:39 126 0 gusting 4 15.6
2016-Dec-07 17:29 090 1 gusting 5 16.1
2016-Dec-07 17:24 129 3 gusting 6 16.1
2016-Dec-07 17:19 177 2 gusting 6 16.1
2016-Dec-07 17:14 095 2 gusting 6 16.1
2016-Dec-07 17:09 090 3 gusting 6 16.1
2016-Dec-07 17:04 090 2 gusting 5 16.7
2016-Dec-07 16:59 131 1 gusting 5 16.7
2016-Dec-07 16:54 135 2 gusting 5 16.7
2016-Dec-07 16:49 090 2 gusting 6 16.7
2016-Dec-07 16:44 048 2 gusting 5 17.2
2016-Dec-07 16:39 096 2 gusting 6 17.2
2016-Dec-07 16:34 090 2 gusting 8 17.2
2016-Dec-07 16:29 094 3 gusting 6 17.8
2016-Dec-07 16:19 063 2 gusting 6 17.8
2016-Dec-07 16:14 130 4 gusting 8 18.3
2016-Dec-07 16:09 091 1 gusting 6 18.3
2016-Dec-07 16:04 090 2 gusting 7 18.9
2016-Dec-07 15:54 132 2 gusting 4 18.9
2016-Dec-07 15:49 093 1 gusting 5 18.9
2016-Dec-07 15:44 177 1 gusting 5 19.4
2016-Dec-07 15:39 131 3 gusting 5 19.4
2016-Dec-07 15:34 090 0 gusting 2 19.4
2016-Dec-07 15:29 090 0 gusting 4 19.4
2016-Dec-07 15:24 093 1 gusting 4 19.4
2016-Dec-07 15:14 132 1 gusting 4 20.0
2016-Dec-07 15:09 159 0 gusting 5 20.0
2016-Dec-07 14:59 183 1 gusting 2 20.0
2016-Dec-07 14:49 219 1 gusting 5 20.0
2016-Dec-07 14:44 182 1 gusting 4 20.0
2016-Dec-07 14:39 225 2 gusting 4 20.0
2016-Dec-07 14:34 180 1 gusting 5 20.0
2016-Dec-07 14:29 228 1 gusting 4 20.0
2016-Dec-07 14:24 208 1 gusting 4 20.0
2016-Dec-07 14:14 090 1 gusting 2 20.0
2016-Dec-07 14:09 180 1 gusting 2 19.4
2016-Dec-07 14:04 180 1 gusting 2 19.4
2016-Dec-07 13:59 185 1 gusting 5 19.4
2016-Dec-07 13:49 225 2 gusting 6 20.0
2016-Dec-07 13:44 186 1 gusting 5 20.0
2016-Dec-07 13:39 225 0 gusting 2 19.4
2016-Dec-07 13:34 315 1 gusting 5 19.4
2016-Dec-07 13:29 228 1 gusting 5 19.4
2016-Dec-07 13:24 222 2 gusting 5 19.4
2016-Dec-07 13:19 225 2 gusting 4 18.9
2016-Dec-07 13:14 225 1 gusting 6 18.9